Location: St. Louis
(38.6270°N, 90.1994°W)
Time: 05:07:59
(UTC-06:00)

Tiros 1 - Pass Details

Date: 05 December 2021
Orbit: 630 x 663 km, 48.4° (Epoch: 20 January)

Event Time Altitude Azimuth Distance (km) Brightness Sun altitude
Rises 19:42:46 0° 278° (W) 2,923 11.5 -35.1°
Reaches altitude 10° 19:45:22 10° 290° (WNW) 2,021 10.4 -35.6°
Enters shadow 19:46:35 16° 301° (WNW) 1,658 9.7 -35.8°
